Flag for Peru Weather past 2 weeks in Arequipa, Arequipa, Peru

Now
48 °F

Sunny.


Feels Like: 48 °F
Forecast: 49 / 70 °F
Wind: 2 mph from North

Location: Arequipa Airport

Current Time: Mar 31, 2015 at 6:48:58 AM

Latest Report: Mar 31, 2015 at 6:00 AM


Visibility: 10 mi

Pressure: 30.33 "Hg

Humidity: 76%

Dew point: 41 °F

Location of ArequipaLocation

Historic Weather in Arequipa — Graph

°F

Arequipa temperature yesterday

Maximum temperature yesterday: 66 °F (at 1:00 PM)
Minimum temperature yesterday: 50 °F (at 4:00 AM)
Average temperature yesterday: 57 °F

Past Weeks' High & Low Weather Summary

 TemperatureHumidityPressure
High68 °F (Mar 28, 2:00 PM)100% (Mar 16, 5:00 AM)31.25 "Hg (Mar 16, 5:00 AM)
Low48 °F (Mar 27, 5:00 AM)42% (Mar 27, 9:00 AM)30.07 "Hg (Mar 20, 8:00 AM)
Average56 °F84%30.34 "Hg
* Reported Mar 16 5:00 AM — Mar 31 5:00 AM, Arequipa, Weather by CustomWeather, © 2015

Note: Actual official high and low records may vary slightly from our data, if they occured in-between our weather recording intervals... More about our weather records

Advertising

Arequipa weather history for previous 24 hours

 ConditionsComfort  
Time TempWeatherWind HumidityBarometerVisibility
5:00 AM
Tue, Mar 31
52 °FClear.5 mph67%30.30 "Hg10 mi
4:00 AM54 °FClear.7 mph63%30.30 "Hg10 mi
3:00 AM52 °FClear.6 mph72%30.30 "Hg10 mi
2:00 AM52 °FClear.3 mph72%30.33 "Hg10 mi
1:00 AM52 °FClear.3 mph77%30.33 "Hg10 mi
12:00 AM54 °FClear.5 mph72%30.36 "Hg10 mi
11:00 PM
Mon, Mar 30
54 °FClear.3 mph77%30.36 "Hg10 mi
10:00 PM55 °FClear.6 mph82%30.39 "Hg10 mi
9:00 PM55 °FPassing clouds.3 mph88%30.39 "HgN/A
8:00 PM54 °FPassing clouds.No wind94%30.36 "HgN/A
7:00 PM55 °FPassing clouds.7 mph88%30.36 "HgN/A
6:00 PM55 °FPassing clouds.12 mph88%30.33 "HgN/A
5:00 PM61 °FScattered clouds.9 mph59%30.33 "HgN/A
4:00 PM63 °FPassing clouds.12 mph59%30.33 "HgN/A
3:00 PM64 °FPassing clouds.10 mph52%30.33 "HgN/A
2:00 PM64 °FPassing clouds.12 mph52%30.33 "HgN/A
1:00 PM66 °FPassing clouds.10 mph49%30.36 "HgN/A
12:00 PM64 °FPassing clouds.10 mph52%30.36 "HgN/A
11:00 AM63 °FPassing clouds.10 mph59%30.36 "HgN/A
10:00 AM64 °FSunny.6 mph46%30.36 "Hg10 mi
9:00 AM61 °FPassing clouds.5 mph55%30.36 "HgN/A
8:00 AM61 °FSunny.1 mph52%30.36 "Hg10 mi
7:00 AM54 °FSunny.6 mph67%30.36 "Hg10 mi
6:00 AM50 °FSunny.3 mph67%30.33 "Hg10 mi
Weather by CustomWeather, © 2015

See weather overviewHow to use our weather pages